Weather History for VTSS - March, 2014

Change the Weather History Date:

Saturday, March 1, 2014

  Actual Average Record
Temperature  
Mean Temperature 80 °F -  
Max Temperature 93 °F 90 °F 95 °F (2005)
Min Temperature 68 °F 73 °F 68 °F (2014)
Cooling Degree Days 16    
Growing Degree Days 30 (Base 50)    
Moisture  
Dew Point 68 °F    
Average Humidity 72    
Maximum Humidity 94    
Minimum Humidity 27    
Precipitation  
Precipitation 0.00 in - - ()
Sea Level Pressure  
Sea Level Pressure 29.87 in    
Wind  
Wind Speed 5 mph ()    
Max Wind Speed 17 mph    
Max Gust Speed -    
Visibility 6.2 miles    
Events      
Averages and records for this station are not official NWS values.
T = Trace of Precipitation, MM = Missing Value Source: Averaged Metar Reports

Daily Weather History Graph

Daily Weather History Graph

Search for Another Location

Airport or City:

Trip Planner

Search our weather history database for the weather conditions in past years. The results will help you decide how hot, cold, wet, or windy it might be!

Date:

Astronomy

Mar. 01, 2014 Rise Set
Actual Time 6:31 AM ICT 6:30 PM ICT
Civil Twilight 6:10 AM ICT 6:51 PM ICT
Nautical Twilight 5:45 AM ICT 7:15 PM ICT
Astronomical Twilight 5:21 AM ICT 7:40 PM ICT
Moon 6:08 AM ICT (3/1) 6:30 PM ICT (3/1)
Length of Visible Light 12h 41m
Length of Day
11h 59m
Waning Crescent, 0% of the Moon is Illuminated
Mar 1
Waning Crescent
Mar 1
New
Mar 8
First Quarter
Mar 17
Full
Mar 24
Last Quarter

Hourly Weather History & Observations

Time (ICT) Temp. Heat Index Dew Point Humidity Pressure Visibility Wind Dir Wind Speed Gust Speed Precip Events Conditions
12:00 AM 73.4 °F - 69.8 °F 88% 29.92 in 6.2 mi NW 4.6 mph - N/A   Scattered Clouds
12:30 AM 71.6 °F - 68.0 °F 88% 29.92 in 6.2 mi NNW 2.3 mph - N/A   Scattered Clouds
1:00 AM 70 °F - 68 °F 90% 29.92 in 6 mi WNW 2.3 mph - -   Scattered Clouds
1:00 AM 69.8 °F - 68.0 °F 94% 29.92 in 6.2 mi WNW 2.3 mph - N/A   Scattered Clouds
1:30 AM 69.8 °F - 68.0 °F 94% 29.89 in 6.2 mi Calm Calm - N/A   Scattered Clouds
2:00 AM 69.8 °F - 68.0 °F 94% 29.89 in 6.2 mi Calm Calm - N/A   Scattered Clouds
2:30 AM 69.8 °F - 68.0 °F 94% 29.89 in 6.2 mi Calm Calm - N/A   Scattered Clouds
3:00 AM 69.8 °F - 68.0 °F 94% 29.89 in 6.2 mi Calm Calm - N/A   Scattered Clouds
3:30 AM 69.8 °F - 68.0 °F 94% 29.86 in 6.2 mi Calm Calm - N/A   Scattered Clouds
4:00 AM 70 °F - 68 °F 92% 29.88 in 6 mi Calm Calm - -   Scattered Clouds
4:00 AM 69.8 °F - 68.0 °F 94% 29.86 in 6.2 mi Calm Calm - N/A   Scattered Clouds
4:30 AM 71.6 °F - 69.8 °F 94% 29.86 in 6.2 mi Calm Calm - N/A   Scattered Clouds
5:00 AM 71.6 °F - 69.8 °F 94% 29.86 in 6.2 mi North 3.5 mph - N/A   Scattered Clouds
5:30 AM 71.6 °F - 69.8 °F 94% 29.86 in 6.2 mi North 3.5 mph - N/A   Scattered Clouds
6:00 AM 71.6 °F - 69.8 °F 94% 29.89 in 6.2 mi North 4.6 mph - N/A   Scattered Clouds
6:30 AM 69.8 °F - 68.0 °F 94% 29.89 in 6.2 mi Calm Calm - N/A   Scattered Clouds
7:00 AM 69 °F - 68 °F 94% 29.91 in 6 mi Calm Calm - -   Scattered Clouds
7:00 AM 69.8 °F - 68.0 °F 94% 29.89 in 6.2 mi Calm Calm - N/A   Scattered Clouds
7:30 AM 71.6 °F - 69.8 °F 94% 29.92 in 6.2 mi Calm Calm - N/A   Scattered Clouds
8:00 AM 77.0 °F - 71.6 °F 83% 29.92 in 6.2 mi NW 3.5 mph - N/A   Scattered Clouds
8:30 AM 78.8 °F - 71.6 °F 78% 29.92 in 6.2 mi North 3.5 mph - N/A   Scattered Clouds
9:00 AM 80.6 °F 84.6 °F 71.6 °F 74% 29.95 in 6.2 mi NE 5.8 mph - N/A   Scattered Clouds
9:30 AM 82.4 °F 88.2 °F 73.4 °F 74% 29.95 in 6.2 mi NE 6.9 mph - N/A   Scattered Clouds
10:00 AM 84 °F - 71 °F 57% 29.96 in 6 mi East 8.1 mph - -   Scattered Clouds
10:00 AM 86.0 °F 91.8 °F 71.6 °F 62% 29.95 in 6.2 mi East 8.1 mph - N/A   Mostly Cloudy
10:30 AM 86.0 °F 90.4 °F 69.8 °F 58% 29.92 in 6.2 mi East 11.5 mph - N/A   Mostly Cloudy
11:00 AM 87.8 °F 91.4 °F 68.0 °F 52% 29.92 in 6.2 mi ENE 9.2 mph - N/A   Scattered Clouds
11:30 AM 89.6 °F 93.4 °F 68.0 °F 49% 29.92 in 6.2 mi NE 9.2 mph - N/A   Scattered Clouds
12:00 PM 89.6 °F 92.2 °F 66.2 °F 46% 29.89 in 6.2 mi East 8.1 mph - N/A   Scattered Clouds
12:30 PM 91.4 °F 92.1 °F 62.6 °F 38% 29.86 in 6.2 mi ENE 16.1 mph - N/A   Scattered Clouds
1:00 PM 91 °F - 62 °F 28% 29.87 in 6 mi ENE 16.1 mph - -   Scattered Clouds
1:00 PM 91.4 °F 92.1 °F 62.6 °F 38% 29.86 in 6.2 mi ENE 16.1 mph - N/A   Scattered Clouds
1:30 PM 91.4 °F 93.2 °F 64.4 °F 41% 29.83 in 6.2 mi NE 16.1 mph - N/A   Partly Cloudy
2:00 PM 89.6 °F 91.1 °F 64.4 °F 43% 29.83 in 6.2 mi ENE 11.5 mph - N/A   Partly Cloudy
2:30 PM 91.4 °F 92.1 °F 62.6 °F 38% 29.80 in 6.2 mi East 13.8 mph - N/A   Partly Cloudy
3:00 PM 91.4 °F 91.4 °F 60.8 °F 36% 29.80 in 6.2 mi NE 13.8 mph - N/A   Partly Cloudy
3:30 PM 89.6 °F 89.5 °F 60.8 °F 38% 29.80 in 6.2 mi NNE 17.3 mph - N/A   Partly Cloudy
4:00 PM 90 °F - 60 °F 27% 29.81 in 6 mi NE 12.7 mph - -   Scattered Clouds
4:00 PM 89.6 °F 89.5 °F 60.8 °F 38% 29.80 in 6.2 mi NE 12.7 mph - N/A   Partly Cloudy
4:30 PM 89.6 °F 89.5 °F 60.8 °F 38% 29.80 in 6.2 mi ENE 11.5 mph - N/A   Partly Cloudy
5:00 PM 86.0 °F 90.4 °F 69.8 °F 58% 29.80 in 6.2 mi NNE 12.7 mph - N/A   Partly Cloudy
5:30 PM 84.2 °F 88.4 °F 69.8 °F 62% 29.80 in 6.2 mi NNE 9.2 mph - N/A   Partly Cloudy
6:00 PM 84.2 °F 87.3 °F 68.0 °F 58% 29.80 in 6.2 mi ENE 8.1 mph - N/A   Partly Cloudy
6:30 PM 82.4 °F 85.4 °F 68.0 °F 62% 29.83 in 6.2 mi NE 6.9 mph - N/A   Partly Cloudy
7:00 PM 80 °F - 70 °F 63% 29.85 in 6 mi North 6.9 mph - -   Scattered Clouds
7:00 PM 78.8 °F - 69.8 °F 74% 29.83 in 6.2 mi North 6.9 mph - N/A   Partly Cloudy
7:30 PM 78.8 °F - 69.8 °F 74% 29.83 in 6.2 mi ENE 3.5 mph - N/A   Partly Cloudy
8:00 PM 77.0 °F - 69.8 °F 78% 29.83 in 6.2 mi East 3.5 mph - N/A   Partly Cloudy
8:30 PM 77.0 °F - 69.8 °F 78% 29.86 in 6.2 mi NNE 3.5 mph - N/A   Partly Cloudy
9:00 PM 77.0 °F - 71.6 °F 83% 29.86 in 6.2 mi North 3.5 mph - N/A   Partly Cloudy
9:30 PM 77.0 °F - 71.6 °F 83% 29.86 in 6.2 mi NNW 2.3 mph - N/A   Scattered Clouds
10:00 PM 76 °F - 71 °F 80% 29.88 in 6 mi NNW 4.6 mph - -   Scattered Clouds
10:00 PM 77.0 °F - 71.6 °F 83% 29.86 in 6.2 mi NNW 4.6 mph - N/A   Scattered Clouds
10:30 PM 75.2 °F - 71.6 °F 89% 29.89 in 6.2 mi NNW 5.8 mph - N/A   Scattered Clouds
11:00 PM 75.2 °F - 71.6 °F 89% 29.89 in 6.2 mi NNW 4.6 mph - N/A   Scattered Clouds
11:30 PM 75.2 °F - 71.6 °F 89% 29.89 in 6.2 mi NW 4.6 mph - N/A   Scattered Clouds